Wind_Speed
26 27 28 31 36 38 12 7 3 13 17 3 3 5 6 4 6 5 3 6 5 7 10 6 8 8 5 9 11 4 6 2 5 8 7 12 6 7 6 6 10 4 4 5
26 27 28 30 34 35 11 4 4 14 15 3 6 9 15 2 7 8 3 5 9 9 7 5 6 5 7 8 6 3 5 5 4 10 10 17 4 3 6 4 2 4 4 6
26 28 29 31 33 33 6 3 3 2 3 5 11 13 5 6 4 3 6 8 8 7 6 8 5 6 6 11 6 5 2 2 1 3 7 7 14 18 18 8 4 8 5 9
26 28 29 32 33 28 4 3 3 5 1 6 8 7 8 2 4 1 5 4 4 6 5 8 8 12 12 8 4 6 5 3 6 9 14 14 14 16 19 16 13 10 11 8
25 27 29 32 34 20 1 4 4 7 7 9 4 4 2 7 10 6 6 12 12 13 8 6 7 9 7 4 9 8 7 5 8 8 10 12 11 16 18 20 20 19 14 11
24 26 28 30 32 20 7 12 9 3 7 7 3 4 8 11 9 6 9 9 6 11 9 8 7 7 7 7 5 4 2 1 3 5 7 8 4 12 12 8 20 16 13 14
22 25 26 26 26 25 6 11 7 3 5 7 6 11 8 13 8 4 9 6 6 4 8 9 8 8 9 8 8 5 1 3 2 1 7 4 6 9 9 5 13 13 13 17
21 23 25 26 23 20 12 8 7 3 4 8 10 9 10 6 3 2 4 7 2 6 7 3 4 4 4 5 3 4 4 2 2 2 2 7 8 11 8 7 5 9 4 10
19 21 23 25 24 21 10 7 13 3 4 7 9 9 4 4 5 4 4 6 4 4 3 2 2 2 3 4 5 10 9 7 4 3 3 4 3 10 7 6 2 7 9 6
18 20 22 24 23 20 17 5 15 5 3 4 5 4 4 4 6 3 6 4 4 5 2 2 2 2 2 3 3 4 4 4 2 4 2 3 6 8 7 5 6 6 6 10
16 18 20 22 22 20 19 5 14 8 3 3 6 6 5 5 6 4 5 4 5 5 3 4 3 4 2 2 2 2 2 1 3 4 4 3 8 5 5 3 7 9 12 12
15 17 18 20 19 17 15 6 16 16 4 4 9 4 2 3 4 3 5 3 4 3 3 4 3 4 5 3 1 5 4 2 1 3 3 5 8 7 11 9 7 7 12 15
13 15 17 18 17 15 16 10 16 16 3 6 9 6 6 4 1 4 2 4 5 3 0 2 2 1 2 2 2 3 5 6 3 5 6 12 11 11 11 13 12 15 14 12
12 14 15 17 16 14 12 9 11 12 6 3 3 10 4 2 6 6 6 1 1 2 1 2 2 2 2 2 2 3 2 5 2 3 4 10 4 12 11 13 12 13 14 15
12 13 14 16 16 14 13 5 8 9 6 3 4 5 12 5 8 1 0 6 3 3 2 2 4 2 4 3 1 3 3 2 2 3 4 3 9 10 11 10 11 13 14 16
11 13 13 14 15 15 6 2 6 14 7 3 3 5 8 12 11 4 2 5 1 2 1 3 2 3 3 2 2 5 6 5 1 2 5 8 7 5 13 10 12 15 14 17
11 12 13 13 13 13 4 2 6 12 7 2 3 2 3 10 8 4 3 9 2 1 2 2 0 2 3 1 1 6 7 4 4 5 6 5 4 3 6 11 16 19 20 18
10 12 13 14 12 10 5 2 1 7 5 4 3 2 4 10 3 3 4 3 3 2 2 0 2 1 1 2 4 7 5 3 3 5 6 4 7 7 6 13 16 15 14 16
10 12 13 7 2 3 1 4 6 3 3 3 2 3 2 3 3 2 1 2 2 1 2 3 4 3 3 4 5 6 2 2 5 5 6 8 7 7 7 9 15 16 13 12
10 7 5 2 2 6 7 1 3 4 4 3 3 3 3 4 3 2 3 1 3 2 4 3 2 4 2 7 7 5 3 2 4 4 6 6 5 5 6 7 11 13 13 16
2 3 2 5 7 2 4 3 3 4 4 4 4 5 3 4 3 1 1 2 1 2 4 4 3 3 5 9 8 6 3 1 2 9 8 5 4 4 3 5 9 14 20 17
5 8 8 5 3 2 3 3 3 3 3 3 2 4 4 2 2 1 1 2 1 4 3 2 3 1 11 8 7 6 5 0 4 11 6 5 12 5 2 3 8 10 14 19
3 3 3 2 2 2 4 4 3 3 3 3 2 2 2 1 3 2 1 2 4 2 2 3 3 6 6 7 5 5 5 6 5 9 5 5 11 5 4 3 7 6 12 15
2 2 3 4 5 5 5 7 1 3 4 4 3 3 1 2 2 1 2 4 1 3 3 4 5 8 7 7 5 5 3 6 3 6 2 1 7 2 6 9 4 5 11 11
2 2 4 6 7 8 7 2 2 1 2 1 2 2 2 1 1 2 2 3 4 4 3 1 6 7 8 7 5 5 6 5 2 5 2 4 7 4 4 6 5 7 4 7
2 4 4 7 7 4 4 5 2 2 3 3 4 3 3 3 3 6 6 3 4 2 0 4 5 7 7 6 5 4 10 6 4 3 4 4 6 8 2 8 4 5 4 3
3 4 6 9 8 7 6 4 2 6 2 2 2 4 6 3 3 6 4 4 2 3 2 3 6 5 5 6 7 8 12 9 5 4 6 9 7 9 3 3 1 6 5 6
Wind_Direction
348 347 348 350 351 348 360 301 265 154 161 171 211 233 246 256 353 66 295 322 316 322 359 23 218 85 53 37 37 24 356 236 307 281 307 64 19 16 35 291 327 275 220 255
349 349 351 352 357 358 344 294 286 169 191 239 245 257 259 94 352 7 319 341 0 18 360 351 28 102 89 48 58 72 344 334 8 342 344 358 360 341 312 306 46 298 357 314
350 352 353 352 355 352 335 278 273 152 195 262 286 290 316 159 97 285 3 343 334 349 322 313 315 353 127 97 112 135 72 334 60 227 288 343 349 345 344 347 338 306 306 339
354 355 356 353 353 348 183 225 305 355 175 234 258 276 359 17 134 47 106 291 273 40 358 354 26 12 12 75 34 22 36 26 23 348 347 342 336 341 336 329 313 301 305 55
356 358 1 358 358 360 206 350 349 338 297 319 329 36 339 324 38 26 25 29 9 48 48 17 353 3 14 8 0 8 359 338 356 337 339 342 335 354 23 14 14 2 4 66
358 1 4 5 4 21 355 7 329 293 280 294 318 33 22 48 26 81 63 27 355 49 4 329 301 287 281 279 290 296 323 322 15 295 303 319 12 14 33 19 34 23 32 350
358 1 5 9 9 13 348 343 316 284 307 336 46 25 12 61 46 9 357 67 21 17 317 302 288 262 251 245 260 245 328 33 26 340 25 337 129 29 35 61 49 31 5 2
357 360 4 7 7 6 355 339 355 331 310 356 31 29 21 45 121 296 10 51 13 310 302 301 289 244 276 240 193 75 88 82 69 89 247 263 49 6 354 13 22 31 39 8
356 359 2 5 5 5 12 27 8 308 295 24 1 333 13 318 329 157 127 62 337 287 251 254 260 1 114 51 3 41 35 54 75 348 314 303 292 337 335 276 323 347 350 1
354 357 1 3 3 3 358 316 7 297 286 25 348 29 343 340 340 324 45 347 317 224 299 299 334 89 96 50 28 26 25 351 316 316 313 113 284 332 301 44 320 353 332 334
351 354 358 2 2 0 2 309 17 13 320 328 4 16 28 355 17 13 309 341 346 1 356 17 359 37 59 358 7 87 67 55 32 13 360 28 358 17 50 310 336 348 346 335
345 350 354 0 3 359 4 326 358 346 235 294 319 318 353 2 336 339 324 83 30 23 357 2 9 1 18 45 72 41 56 97 150 59 114 63 4 26 358 351 335 337 330 322
339 346 349 354 359 358 355 330 347 347 278 284 231 184 178 208 320 346 340 24 10 48 347 286 300 42 37 341 65 73 136 27 58 21 9 6 356 9 353 347 337 329 321 336
330 339 343 347 351 352 346 335 344 350 311 269 129 116 145 270 85 17 2 77 313 300 253 281 279 70 91 314 276 107 60 53 9 256 0 338 21 332 339 329 330 324 325 317
320 329 336 340 343 340 334 283 349 37 353 318 303 263 150 183 118 192 215 345 6 342 325 286 271 90 50 329 50 79 57 119 103 256 354 291 293 321 320 345 342 341 334 321
312 322 328 335 337 339 355 201 30 9 4 281 297 67 149 165 141 205 233 285 227 216 315 309 334 51 79 343 61 118 113 84 50 255 261 258 264 21 16 351 339 329 323 319
306 317 320 323 326 329 298 340 309 351 350 262 296 270 127 166 149 196 221 207 205 216 284 288 352 97 77 267 244 144 86 83 334 292 311 331 66 28 358 341 332 324 316 311
305 313 314 313 307 292 286 235 13 358 292 285 279 261 149 179 179 227 190 198 166 183 229 339 71 49 134 258 118 96 79 42 319 302 308 344 62 26 346 342 328 327 329 331
310 312 310 308 255 257 80 296 287 277 271 306 273 285 97 174 234 271 74 116 88 289 227 188 133 217 207 223 141 106 112 233 267 318 343 50 25 351 349 342 341 332 326 330
316 320 241 218 51 327 306 277 188 194 193 225 252 296 290 168 185 242 103 91 166 221 226 98 207 241 175 124 120 143 172 287 339 349 44 24 5 343 347 352 345 342 336 330
304 267 351 6 325 293 222 253 213 168 214 199 226 226 290 348 80 47 82 183 180 242 220 165 228 220 161 147 153 162 146 3 3 95 71 7 304 284 317 325 333 346 356 347
329 302 297 284 247 245 265 225 229 241 245 168 203 213 209 28 345 92 95 225 210 250 176 182 247 115 134 139 151 155 128 98 51 100 82 338 308 304 201 268 309 322 345 3
271 237 261 351 253 30 227 217 199 210 197 146 194 209 118 59 20 30 340 255 235 345 227 229 226 143 132 137 136 136 154 101 81 100 80 324 326 154 162 243 305 321 19 18
277 208 311 217 206 230 211 255 298 9 81 150 197 104 168 103 177 148 239 236 290 246 240 228 171 158 148 142 155 154 136 98 88 104 128 292 311 303 236 242 271 90 49 29
284 287 236 231 251 298 297 78 38 17 341 83 19 71 41 350 131 249 242 230 235 229 242 181 141 138 144 159 176 153 123 100 95 101 7 332 320 327 11 348 17 141 80 52
245 230 259 267 283 336 355 343 304 269 219 101 102 88 323 222 217 197 212 228 214 288 260 136 127 150 154 163 170 176 130 128 121 122 261 259 305 305 81 344 61 18 177 151
246 246 253 266 278 284 287 323 329 332 347 245 70 170 230 253 222 208 206 223 47 329 346 129 142 152 189 183 200 196 150 152 168 215 253 269 261 294 174 1 98 19 16 212
Height
824 818 813 806 798 787 782 778 776 755 758 776 771 776 757 740 733 728 735 736 741 749 745 750 751 754 745 727 736 762 755 762 789 770 739 735 745 764 774 805 799 787 788 786
823 818 812 807 800 793 790 783 765 754 755 782 773 754 746 736 740 743 739 743 742 739 751 764 751 748 735 732 746 765 760 782 806 793 765 744 761 753 756 764 771 794 800 795
823 817 811 805 799 794 793 785 773 756 755 755 762 760 746 747 736 743 742 748 743 747 755 748 756 751 740 738 749 751 752 774 791 817 799 777 780 765 754 762 789 784 783 780
823 817 810 803 797 790 789 779 768 766 770 762 757 748 752 748 753 742 744 754 751 760 770 768 774 764 759 750 755 754 763 791 785 782 775 773 775 774 767 774 769 784 771 785
824 818 811 804 795 788 787 785 785 772 768 753 754 759 756 756 753 754 763 769 760 764 786 785 789 778 777 773 765 769 767 796 789 796 778 778 785 779 784 787 779 773 767 791
824 819 814 807 799 792 791 791 786 783 770 762 760 763 761 761 760 758 758 766 772 778 779 771 768 766 765 767 773 778 778 789 800 815 789 789 806 811 806 798 799 807 814 806
826 821 817 812 807 804 803 798 794 789 783 769 769 764 760 770 772 777 767 765 776 775 765 762 759 759 761 762 765 762 780 789 796 814 806 830 818 802 798 799 806 806 810 807
827 823 819 814 810 806 803 801 799 794 794 773 768 767 769 768 772 775 770 771 771 767 768 781 781 780 773 763 757 763 766 783 806 821 821 804 806 807 810 814 810 803 801 802
828 824 820 816 811 806 803 803 800 797 796 788 777 779 774 782 781 776 771 767 766 767 779 784 793 797 780 787 780 771 777 785 806 811 821 829 827 805 796 798 822 801 798 799
829 825 822 817 813 809 806 803 802 798 797 785 781 788 789 780 781 783 778 776 774 765 784 791 791 796 774 801 799 801 804 805 812 815 816 829 811 799 792 826 835 807 804 802
829 826 823 819 815 811 807 805 804 802 800 788 784 783 787 786 788 796 785 784 785 785 792 794 793 796 791 794 789 793 807 816 822 819 823 837 809 803 822 824 812 809 808 804
830 827 824 821 817 813 810 807 804 802 801 792 788 787 787 786 786 789 785 787 787 792 798 795 791 799 795 799 811 786 819 813 820 823 828 822 816 816 814 811 811 808 806 800
830 827 825 822 819 816 814 810 805 802 797 789 786 785 786 786 786 786 793 788 786 790 787 794 792 799 794 809 812 800 809 801 821 819 812 814 812 812 812 812 810 805 801 799
829 827 825 822 819 817 815 813 809 808 804 801 787 783 786 786 786 788 787 787 787 786 787 794 795 800 790 804 799 804 808 807 818 817 811 813 810 812 811 809 808 805 801 798
829 827 825 822 819 816 814 812 812 811 813 809 794 783 783 786 788 789 789 788 788 791 795 795 799 788 795 795 795 808 806 817 825 827 817 820 816 811 809 808 806 804 801 794
828 826 824 822 819 816 814 811 813 812 812 809 800 780 781 783 786 789 789 789 789 791 793 795 788 788 798 809 812 807 808 810 811 816 811 810 808 809 809 809 806 803 798 794
826 825 823 821 819 818 817 817 815 812 811 809 802 787 779 781 784 787 788 787 790 791 792 793 791 795 796 804 812 803 807 807 808 806 807 808 805 810 808 806 803 798 793 789
825 823 821 819 817 816 814 813 813 813 811 807 806 790 785 780 787 791 782 787 788 791 793 790 796 796 799 809 799 802 804 805 806 805 803 803 805 804 805 803 800 794 788 784
823 821 819 817 815 814 814 813 812 812 816 812 800 796 795 779 783 782 782 782 798 788 795 795 795 800 808 797 797 801 802 804 804 801 801 802 804 804 804 802 798 792 786 782
822 820 818 813 814 813 813 811 811 811 809 809 805 790 792 782 783 785 790 788 796 803 793 787 796 798 787 790 793 798 799 799 799 801 805 804 804 804 803 802 800 795 788 782
823 819 814 815 813 812 809 806 804 801 802 796 793 791 793 782 793 792 790 797 794 802 794 795 796 794 789 788 791 793 794 795 796 798 801 802 801 801 801 800 798 795 788 782
825 824 819 816 812 809 808 804 798 796 793 783 787 787 785 786 783 789 790 796 794 802 782 791 793 784 781 785 788 789 792 793 794 796 799 800 799 796 797 797 795 793 789 785
824 822 818 815 812 826 811 805 794 792 785 781 783 786 784 787 787 792 794 799 800 783 793 793 781 779 781 783 785 787 790 791 793 795 797 797 795 795 794 794 792 791 789 785
823 818 841 817 809 800 792 789 784 777 779 780 780 785 788 787 794 792 800 794 790 796 797 784 779 777 779 782 783 786 788 790 791 793 794 794 793 791 791 790 788 789 786 785
824 821 827 804 792 785 779 778 779 778 778 780 784 787 788 792 795 792 793 795 795 786 781 773 771 774 777 780 782 783 786 789 790 791 793 792 791 789 789 788 786 785 784 783
824 820 812 794 790 787 784 781 780 777 778 781 788 798 803 800 801 793 791 789 785 777 771 771 771 774 776 779 781 782 784 786 789 790 791 790 789 787 786 785 785 783 781 781
824 813 804 801 798 792 790 784 782 780 781 786 787 798 794 779 782 782 775 778 780 775 773 771 772 775 777 778 779 781 782 784 786 787 787 786 785 784 784 783 783 781 778 777